Zurück zum Katalog

COSMOS 2251 DEB

AktivLEO
NORAD 33983·DEBRIS·🇷🇺 Russia

Gestartet Jun 16, 1993 von Plesetsk Cosmodrome

Loading…

Nächste Überflüge (nächste 24 Stunden)

TLE

AktuellSource: Space-Track

Epoche: Sep 13, 2026, 17:54 UTC

1 33983U 93036FS  26256.74628494  .00000880  00000-0  22633-3 0  9997
2 33983  74.0520 350.0892 0020565  18.8482 104.0808 14.51537334926185

Verfolge COSMOS 2251 DEB in Echtzeit mit AllMySat

Download on the App Store